Location: Great Ryburgh
(52.8167°N, 0.9167°E)
Time: 10:11:47
(UTC+00:00)

Daily predictions for brighter satellites

Satellite Brightness Start Highest point End
(mag) Time Altitude Azimuth Time Altitude Azimuth Time Altitude Azimuth
Cosmos 2360 Rocket 3.1 20:18:07 10° NNW 20:23:28 39° NE 20:28:46 10° ESE
Cosmos 2016 Rocket 4.0 20:19:01 10° S 20:25:15 80° E 20:31:27 10° NNE
Cosmos 2173 Rocket 4.5 20:19:11 10° SSW 20:25:19 67° WNW 20:31:35 10° N
Cosmos 1461 3.9 20:23:38 10° SSE 20:26:22 20° ESE 20:29:07 10° ENE
CZ-4B R/B 3.6 20:22:36 10° S 20:28:13 69° WSW 20:33:49 10° NNW
CZ-4C R/B 2.3 20:25:13 10° WSW 20:29:37 70° NW 20:35:26 10° NE
CZ-4B R/B 4.2 20:26:18 10° SE 20:30:41 38° ENE 20:35:11 10° N
Cosmos 1992 Rocket 4.2 20:26:20 10° S 20:31:19 48° ESE 20:36:20 10° NE
ISS -3.8 20:32:45 10° WSW 20:36:04 64° S 20:39:23 10° E
Cosmos 2219 Rocket 3.3 20:31:38 10° NNW 20:36:48 34° NE 20:41:56 10° ESE
Cosmos 1437 Rocket 3.5 20:37:21 10° SSE 20:40:27 29° E 20:43:37 10° NNE
SL-08 R/B 3.3 20:38:56 10° NNE 20:43:48 80° ESE 20:48:32 10° SSW
Cosmos 1626 Rocket 3.5 20:41:40 10° N 20:46:03 79° E 20:50:26 10° SSE
DEBRIS 3.5 20:43:09 10° WSW 20:46:06 53° SSE 20:54:19 10° E
Cosmos 1743 4.4 20:44:07 10° NW 20:46:37 24° W 20:49:06 10° SSW
Cosmos 2098 Rocket 4.3 20:44:36 10° SE 20:48:26 25° E 20:51:53 10° NE
Cosmos 1452 Rocket 4.4 20:43:31 10° SW 20:48:38 54° WNW 20:53:47 10° NNE
NOSS 3-3 (A) 3.7 20:44:05 10° SSW 20:49:16 67° SE 20:55:35 10° NE
Terra 3.1 20:48:27 10° SSW 20:52:47 37° W 20:57:11 10° NNW
Cosmos 2151 2.9 20:49:56 10° N 20:54:04 70° ENE 20:58:08 10° SSE
Cosmos 2322 Rocket 2.5 20:49:50 10° NNW 20:55:28 62° NE 21:00:46 12° SE
Cosmos 1486 Rocket 4.3 20:50:29 10° NNW 20:55:43 61° ENE 21:00:35 12° SE
Helios 1A Rocket 3.9 20:52:47 10° N 20:55:45 37° WNW 20:58:40 10° SW
Cosmos 1302 Rocket 4.4 20:52:14 10° SW 20:57:24 69° WNW 21:02:36 10° NNE
Cosmos 1607 4.1 20:52:17 10° SW 20:58:28 81° NW 21:04:49 10° NE
IRS-1C Rocket 4.3 20:53:40 10° SSE 20:58:48 62° ENE 21:04:02 10° N
Cosmos 909 Rocket 4.0 20:53:29 10° SSW 20:59:44 74° SE 21:06:20 10° NE
Cosmos 2061 Rocket 4.1 20:54:05 10° S 21:00:20 90° NW 21:06:42 10° N
Cosmos 2082 Rocket 2.5 20:55:44 10° SW 21:01:28 77° WNW 21:07:13 10° NNE
USA 306 1.5 20:59:33 10° W 21:02:35 76° NNW 21:04:32 10° ENE
Cosmos 2237 Rocket 4.4 21:08:48 10° NNW 21:12:40 18° NNE 21:16:31 10° ENE
CZ-4B R/B 2.4 21:09:42 13° SSE 21:12:40 87° WSW 21:16:11 10° NNW
USA 186 3.0 21:11:33 10° SSW 21:14:02 31° W 21:16:33 10° NNW
Okean O Rocket 2.7 21:12:21 10° S 21:16:25 41° W 21:20:30 10° NNW
Cosmos 2228 4.3 21:16:15 10° SW 21:20:05 38° WNW 21:23:57 10° N
Cosmos 1805 2.8 21:16:50 10° N 21:20:05 67° ENE 21:22:21 18° SSE
NOSS 3-3 (C) 3.8 21:15:49 10° SW 21:21:10 85° SE 21:27:44 10° NE
Cosmos 2278 3.9 21:15:48 10° NW 21:21:32 73° WSW 21:26:23 14° SSE
Meteor 1-5 Rocket 4.3 21:18:39 10° N 21:24:24 75° ENE 21:29:21 15° SSE
COSMOS 2428 4.1 21:19:32 10° NNW 21:24:33 30° NE 21:29:31 10° E
SL-16 R/B 2.7 21:20:27 10° NW 21:25:59 55° WSW 21:30:55 13° S
Okean 1-7 Rocket 3.7 21:22:42 10° N 21:27:10 69° ENE 21:30:35 17° SSE
Cosmos 1544 Rocket 3.7 21:23:45 10° SSW 21:28:04 72° WNW 21:32:25 10° N
CZ-2C R/B 1.8 21:27:13 22° SSE 21:28:53 80° ENE 21:31:40 10° NNW
NOSS 3-4 (A) 3.9 21:25:48 10° NW 21:32:22 72° SW 21:38:39 16° SSE
NOSS 3-4 (C) 3.9 21:26:26 10° NW 21:33:01 73° SW 21:39:18 16° SSE
Cosmos-2242 4.3 21:34:03 17° ESE 21:35:54 23° E 21:39:09 10° NE
Cosmos 1891 Rocket 4.5 21:31:11 10° S 21:37:18 84° W 21:43:23 10° N
Okean-O 4.3 21:33:43 10° SSW 21:37:28 28° W 21:41:16 10° NW
Cosmos 2034 Rocket 4.4 21:32:54 16° SSE 21:37:49 47° E 21:43:49 10° NNE
Cosmos 1933 3.6 21:37:29 10° SSW 21:41:16 64° WNW 21:45:04 10° N
Ariane Rocket 3.3 21:38:06 14° S 21:42:27 64° WSW 21:47:31 10° NNW
COSMOS 2406 3.4 21:36:51 10° SW 21:42:37 76° WNW 21:48:23 10° NNE
ATLAS 2AS CENTAUR R/B 4.4 21:37:24 10° WNW 21:43:35 35° N 21:49:45 10° NE
SPOT 3 Rocket 4.3 21:41:43 11° S 21:46:29 48° W 21:51:29 10° NNW
Nadezhda 4 Rocket 4.0 21:45:09 10° NNW 21:51:19 84° W 21:56:12 17° S
Cosmos 2333 Rocket 3.2 21:48:35 10° NW 21:53:51 40° WSW 21:58:17 14° S
Cosmos 1825 Rocket 3.6 21:52:02 10° NNW 21:56:23 76° W 21:59:17 21° S
Cosmos 1470 4.3 21:54:27 10° NNE 21:56:50 18° ENE 21:58:12 15° E
Helios 1B rocket 3.2 21:55:11 20° ESE 21:56:54 32° ENE 22:00:04 10° N
Cosmos 1763 Rocket 3.8 21:53:12 17° S 21:57:04 51° ESE 22:02:10 10° NNE
Cosmos 1536 3.5 21:54:03 10° N 21:57:30 36° ENE 21:59:12 23° ESE
Cosmos 1898 Rocket 4.5 21:53:23 10° NNW 21:58:14 38° NE 22:02:04 15° ESE
Okean 1 3.0 21:56:18 24° S 21:58:19 70° E 22:01:55 10° NNE
Cosmos 1707 3.0 21:59:51 27° ESE 22:00:12 27° E 22:02:41 10° NNE
Cosmos 2221 4.5 21:59:07 12° ESE 22:00:28 14° E 22:02:42 10° NE
Cosmos 1461 3.0 21:58:39 10° SW 22:02:19 62° NW 22:05:58 10° NE
Cosmos 1833 4.4 21:57:58 15° S 22:02:27 52° ESE 22:07:54 10° NE
Cosmos 1953 Rocket 3.5 21:58:06 10° N 22:02:28 76° ENE 22:04:56 25° SSE
Cosmos 44 3.5 21:57:51 10° NW 22:03:18 82° NE 22:06:56 21° SE
Cosmos 990 Rocket 4.0 21:58:25 10° NNW 22:03:37 84° WSW 22:06:54 23° SSE
Cosmos 2360 Rocket 2.7 22:02:08 10° NW 22:07:37 51° WSW 22:11:23 20° S
Cosmos 2195 Rocket 4.5 22:03:17 10° N 22:09:33 88° W 22:13:53 21° S
Cosmos 2322 4.2 22:04:02 10° NNW 22:09:39 54° NE 22:13:47 18° SE
ISS -3.8 22:09:27 10° W 22:12:46 65° S 22:14:19 28° ESE
Cosmos 2026 Rocket 4.0 22:07:30 10° N 22:13:56 85° E 22:18:17 22° SSE
USA 290 2.1 22:12:10 23° SSW 22:13:56 87° WNW 22:17:06 10° NNE
BREEZE-M DEB (TANK) 2.5 22:11:56 10° WSW 22:13:12 24° SW 22:13:12 24° SW
Cosmos 2058 Rocket 3.4 22:14:25 27° SSE 22:16:24 48° E 22:20:34 10° NNE
CZ-4C R/B 4.1 22:14:14 10° WNW 22:18:49 32° N 22:24:37 10° NE
Helios 1A 3.0 22:17:01 10° NNE 22:20:54 55° ESE 22:22:30 31° SSE
Cosmos 2219 Rocket 2.4 22:15:30 10° NW 22:21:05 61° WSW 22:24:29 24° S
Cosmos 1975 3.9 22:20:43 10° N 22:23:59 29° ENE 22:25:24 22° ESE
Cosmos 2098 Rocket 4.1 22:21:08 10° SSW 22:25:37 43° WNW 22:29:32 10° N
Cosmos 1076 Rocket 4.0 22:21:31 10° NNW 22:25:40 52° W 22:28:03 23° SSW
KORONAS-FOTON 4.1 22:25:06 35° SE 22:25:52 41° E 22:29:05 10° NNE
USA 306 3.2 22:27:30 10° WNW 22:28:32 20° WNW 22:28:32 20° WNW
RESURS DK-1 2.6 22:26:41 10° NNW 22:30:37 58° NE 22:32:35 27° ESE
ARIANE 5 R/B 3.2 22:32:16 25° SE 22:34:31 49° ENE 22:38:51 10° N
ALOS 2 3.4 22:33:58 24° ESE 22:36:12 42° ENE 22:40:22 10° N
Cosmos 2322 Rocket 3.5 22:34:21 10° NW 22:39:09 29° WSW 22:42:34 16° SSW
Cosmos 1766 3.3 22:41:45 10° NNW 22:44:53 48° W 22:45:46 35° SW
SL-16 R/B 4.4 22:40:56 10° NNW 22:45:19 22° NNE 22:49:39 10° E
Cosmos 372 Rocket 3.9 22:40:12 10° NNW 22:45:20 82° WSW 22:47:53 30° SSE
Cosmos 1271 Rocket 2.9 22:46:13 39° SE 22:46:46 43° E 22:50:00 10° NNE
Cosmos 1842 2.8 22:47:39 49° SE 22:48:04 54° E 22:51:11 10° NNE
Meteor 2-9 Rocket 4.2 22:47:39 10° N 22:53:03 73° ENE 22:55:56 29° SSE
Spot 4 3.9 22:51:57 31° SSE 22:54:15 73° ENE 22:59:04 10° NNW
Cosmos 540 Rocket 3.7 22:52:54 14° SW 22:57:15 67° WNW 23:02:24 10° NNE
Cosmos 2237 Rocket 2.9 22:52:32 10° NNW 22:58:06 51° NE 23:02:16 17° ESE
Aureole 1 Rocket 4.3 22:53:32 10° NNW 22:59:06 56° WSW 23:02:46 26° S
BREEZE-M DEB (TANK) 4.4 22:44:01 10° SW 23:00:41 58° SSE 23:04:49 10° E
Cosmos 1092 Rocket 4.4 22:55:18 10° NNW 23:01:18 55° W 23:05:07 23° SSW
Cosmos 1980 4.2 22:56:42 10° NNW 23:02:18 57° NE 23:06:13 20° SE
CZ-2C R/B 3.7 22:58:57 17° ESE 23:02:25 35° ENE 23:07:06 10° N
ARGOS Delta rocket 4.4 22:59:09 10° NNE 23:04:11 53° E 23:06:31 31° SSE
Cosmos 1937 Rocket 3.4 23:01:46 10° NNW 23:06:57 86° ENE 23:09:26 31° SSE
NOSS 8 (H) 4.4 23:05:23 10° NW 23:08:14 61° NE 23:08:57 43° E
COSMOS 2428 2.7 23:03:38 10° NW 23:09:20 74° WSW 23:12:10 31° SSE
Geosat 4.2 23:06:06 10° NNE 23:11:07 72° NW 23:15:10 16° SW
NOSS 0 Rocket 3.9 23:05:43 10° NW 23:11:56 86° WSW 23:15:26 27° SSE
Cosmos-2242 3.8 23:10:18 21° SW 23:12:39 42° WNW 23:16:36 10° N
Cosmos 2227 Rocket 4.1 23:11:04 13° ESE 23:12:47 14° E 23:15:41 10° ENE
Meteor 1-11 Rocket 3.8 23:07:10 10° N 23:12:51 70° ENE 23:15:45 29° SSE
Cosmos 468 Rocket 4.0 23:10:31 23° SSW 23:13:53 82° WNW 23:19:11 10° NNE
MetOp-A 4.1 23:18:10 28° SE 23:20:34 59° ENE 23:25:09 10° N
Cosmos 2263 Rocket 4.4 23:21:53 10° ESE 23:22:50 10° E 23:23:47 10° E
Cosmos 1812 Rocket 3.6 23:25:18 39° SSE 23:26:49 69° E 23:31:14 10° NNE
Cosmos 1238 Rocket 4.1 23:25:54 25° ESE 23:27:04 29° E 23:30:52 10° NNE
Helios 1B rocket 3.6 23:29:08 22° WSW 23:29:56 24° W 23:32:50 10° NW
Cosmos 1470 3.2 23:27:49 10° NNW 23:30:53 36° W 23:31:24 34° WSW
USA 234 3.6 23:25:23 10° ENE 23:31:33 42° SE 23:34:29 28° S
Cosmos 1707 4.4 23:31:20 14° W 23:32:28 16° WNW 23:34:24 10° NNW
Cosmos 1536 4.4 23:29:40 10° NW 23:32:31 21° W 23:33:43 18° WSW
SeaSat 1 3.4 23:28:37 12° ESE 23:32:47 43° NE 23:37:25 10° NNW
CZ-2C R/B 3.7 23:27:32 10° NNE 23:33:09 50° E 23:35:48 29° SSE
ACS3 Solar Sail 3.4 23:29:26 10° NE 23:33:59 22° E 23:37:20 14° SE
Helios 1B 4.5 23:30:06 10° NNE 23:34:23 72° ESE 23:35:46 41° S
Meteor 1-27 Rocket 4.2 23:32:34 29° SSE 23:35:16 51° E 23:40:48 10° NNE
NOSS 8 (E) 4.1 23:32:26 10° NW 23:35:21 77° NE 23:35:47 60° ESE
ATLAS 2AS CENTAUR R/B 4.1 23:29:48 10° NW 23:36:08 39° NNE 23:42:26 10° E
Cosmos 2221 2.5 23:35:23 38° SSW 23:36:54 74° WNW 23:41:07 10° N
BlueWalker 3 4.3 23:41:17 10° E 23:41:17 10° E 23:41:24 10° E
CZ-2C R/B 4.0 23:35:38 10° N 23:40:02 61° WNW 23:42:14 29° SW
Cosmos 1898 Rocket 4.1 23:35:25 10° NW 23:40:16 42° WSW 23:42:13 30° SSW
Cosmos 2279 Rocket 4.3 23:37:49 24° SSW 23:41:42 64° WNW 23:47:57 10° N
Cosmos 2297 Rocket 2.5 23:43:29 32° S 23:45:46 51° ESE 23:51:14 10° NE
ISS -1.6 23:46:22 10° W 23:47:15 15° WSW 23:47:15 15° WSW
Meteor 2-20 4.4 23:46:32 31° S 23:49:40 77° E 23:55:46 10° NNE
NOSS 8 (F) 3.9 23:48:32 10° NW 23:51:28 84° SW 23:51:35 79° S
SAR-Lupe-2 4.1 23:53:11 38° WSW 23:53:31 39° W 23:56:41 10° NNW
Meteor 2-10 Rocket 4.2 23:48:18 10° N 23:53:43 55° ENE 23:57:08 23° SE
GP-B 3.0 23:50:05 10° N 23:54:29 79° W 23:56:01 40° SSW
